Location: Chillicothe
(39.7950°N, 93.5520°W)
Time: 23:42:37
(UTC-06:00)

BEESAT - Pass Details

Date: 20 November 2019
Orbit: 700 x 709 km, 98.6° (Epoch: 13 December)

Event Time Altitude Azimuth Distance (km) Brightness Sun altitude
Rises 18:39:37 0° 1° (N) 3,097 ? -20.0°
Reaches altitude 10° 18:42:08 10° 349° (N) 2,175 ? -20.4°
Maximum altitude 18:46:07 27° 293° (WNW) 1,334 ? -21.2°
Drops below altitude 10° 18:50:05 10° 236° (SW) 2,167 ? -22.0°
Sets 18:52:36 0° 224° (SW) 3,082 ? -22.4°
